Regional Weather Roundup
Issued by NWS

Home | Current Version | Previous Version | Graphics & Text | Print | Product List | Glossary Off
Versions: 1 2 3 4 5 6 7 8 9 10 11 12 13 14 15 16 17 18 19 20 21 22 23 24 25 26 27 28 29 30 31 32 33 34 35 36 37 38 39 40 41 42 43 44 45 46 47 48 49 50

000
ASUS43 KLOT 141608
RWRIL

ILLINOIS REGIONAL WEATHER ROUNDUP
NATIONAL WEATHER SERVICE CHICAGO/ROMEOVILLE IL
1000 AM CST THU DEC 14 2017

NOTE: "FAIR" INDICATES FEW OR NO CLOUDS BELOW 12,000 FEET WITH NO
SIGNIFICANT WEATHER AND/OR OBSTRUCTIONS TO VISIBILITY.

* THESE STATIONS ARE NOT UNDER NWS QUALITY CONTROL. THEY ALSO MAY NOT
  REPORT WEATHER SUCH AS PRECIPITATION OR FOG.

ILZ001-002-007-009-015-016-024-141700-
NORTHWEST ILLINOIS

CITY           SKY/WX    TMP DP  RH WIND       PRES   REMARKS
MOLINE         PTSUNNY   24  13  62 E7        30.11R WCI  16
STERLING*        N/A     21  13  71 N7        30.12  WCI  12
SAVANNA*       CLOUDY    21  12  68 CALM      30.12R
$$

ILZ003-004-008-010-011-017-018-141700-
NORTH CENTRAL ILLINOIS

CITY           SKY/WX    TMP DP  RH WIND       PRES   REMARKS
ROCKFORD       PTSUNNY   22  12  65 N6        30.11R WCI  14
FREEPORT*      SUNNY     19  13  75 N3        30.11R
ROCHELLE*      CLOUDY    19  12  74 N5        30.10R WCI  12
DE KALB*       MOSUNNY   18  12  77 N6        30.09R WCI  10
PERU*          CLOUDY    21  11  65 NE6       30.12R WCI  13
$$

ILZ005-006-012>014-019>023-141700-
NORTHEAST ILLINOIS

CITY           SKY/WX    TMP DP  RH WIND       PRES   REMARKS
CHICAGO-OHARE  PTSUNNY   22   9  57 N10       30.07R WCI  11
CHICAGO-MIDWAY PTSUNNY   23  13  65 NW8       30.09R WCI  14
AURORA         CLOUDY    20  12  71 N8        30.09R WCI  10
LANSING*       CLOUDY    22  15  76 W3        30.10R
JOLIET*        CLOUDY    23  13  67 N7        30.10R WCI  14
WAUKEGAN       SUNNY     20  10  65 N9        30.07R WCI   9
DUPAGE AIRPORT MOSUNNY   20  12  71 N8        30.07R WCI  10
KANKAKEE*      PTSUNNY   22  13  68 N6        30.10R WCI  14
WHEELING       SUNNY     23  11  60 N8        30.09R WCI  14
MORRIS*        CLOUDY    22  13  70 N5        30.10R WCI  16
ROMEOVILLE*    CLOUDY    21  13  70 N7        30.09R WCI  12
NORTHERLY ISL    N/A     23  16  74 NW7         N/A  WCI  15
$$

LMZ740>746-141700-
SOUTHERN LAKE MICHIGAN

STATION/POSITION SKY/WX   TEMP    WIND        PRES    VSBY  WAVE
                          AIR SEA DIR/SP/G                  HT/PER
                          (F)     (DEG/KT/KT) (MB)    (MI)  (FT/S)
HARRISON CRIB              25     340/ 18/ 20   N/A
BURNHAM HARBOR             24     310/  3/  9   N/A
CALUMET HARBOR             21     260/  4/  7 1018.1R
BURNS HARBOR               22     190/ 10/ 21 1018.6R
MICHIGAN CITY              20     130/  8/ 10   N/A
$$

ILZ025>027-034>036-040-047-049-050-058-095>099-141700-
WEST-CENTRAL ILLINOIS

CITY           SKY/WX    TMP DP  RH WIND       PRES   REMARKS
QUINCY         CLOUDY    28  17  63 N7        30.10R WCI  21
GALESBURG*     CLOUDY    25  17  71 N7        30.11R WCI  18
MACOMB*        CLOUDY    26  17  68 N5        30.12S WCI  20
JACKSONVILLE*  CLOUDY    27  16  64 N6        30.11R WCI  20
PITTSFIELD*    CLOUDY    28  18  64 N7        30.11R WCI  21
$$

ILZ028>032-037-038-041>044-048-051>054-059>061-141700-
CENTRAL ILLINOIS

CITY           SKY/WX    TMP DP  RH WIND       PRES   REMARKS
PONTIAC        MOSUNNY   22  15  74 N9        30.11R WCI  12
BLOOMINGTON    SUNNY     23  14  68 N9        30.09R WCI  13
DECATUR        SUNNY     26  16  65 N9        30.10R WCI  17
PEORIA         SUNNY     26  12  55 VRB7      30.11R WCI  18
LACON*         CLOUDY    22  11  63 N6        30.11S WCI  14
LINCOLN*       SUNNY     26  15  63 N6        30.11R WCI  19
SPRINGFIELD    MOSUNNY   30  18  60 N9        30.11R WCI  22
TAYLORVILLE    CLOUDY    26  17  69 N9        30.11R WCI  17
$$

ILZ033-039-045-046-055>057-062-063-141700-
EAST-CENTRAL ILLINOIS

CITY           SKY/WX    TMP DP  RH WIND       PRES   REMARKS
CHAMPAIGN      MOSUNNY   28  16  60 N8        30.08R WCI  20
DANVILLE*      FLURRIES  26  19  76 N8        30.05R WCI  17
RANTOUL*       MOSUNNY   28  17  65 N9        30.08R WCI  19
MATTOON        CLOUDY    27  18  69 N8        30.08R WCI  19
PARIS*         CLOUDY    28  22  76 N6        30.09R WCI  22
$$

ILZ079-100>102-141700-
SOUTHWEST ILLINOIS

CITY           SKY/WX    TMP DP  RH WIND       PRES   REMARKS
ALTON          CLOUDY    30  19  64 NW9       30.11R WCI  22
BELLEVILLE     CLOUDY    32  18  55 N7        30.09R WCI  26
CAHOKIA*       CLOUDY    31  18  58 N12       30.10R WCI  22
SPARTA*        CLOUDY    30  21  69 N7        30.11R WCI  23
$$

ILZ064>066-069>071-074>076-080>082-084>086-088>090-092>094-141700-
SOUTH-CENTRAL ILLINOIS

CITY           SKY/WX    TMP DP  RH WIND       PRES   REMARKS
CARBONDALE     CLOUDY    32  21  64 N7        30.09R WCI  26
CAIRO*         CLOUDY    36  25  65 N6        30.08R WCI  31
EFFINGHAM*     CLOUDY    29  21  71 NW8       30.11R WCI  21
MARION         CLOUDY    34  21  60 N9        30.09R WCI  26
MT. VERNON     CLOUDY    31  20  63 N5        30.09R WCI  26
CENTRALIA*     CLOUDY    31  20  63 CALM      30.08R
SALEM*         PTSUNNY   32  18  56 N6        30.09R WCI  27
METROPOLIS*    CLOUDY    35  23  62 N7        30.08R WCI  29
$$

ILZ067-068-072-073-078-083-087-091-141700-
SOUTHEAST ILLINOIS

CITY           SKY/WX    TMP DP  RH WIND       PRES   REMARKS
LAWRENCEVILLE  CLOUDY    31  21  66 NW10      30.08R WCI  22
FLORA*         CLOUDY    32  20  62 N9        30.10R WCI  24
FAIRFIELD*     CLOUDY    32  20  60 N7        30.08R WCI  25
HARRISBURG*    CLOUDY    32  20  62 N10       30.09R WCI  24
ROBINSON*      CLOUDY    30  21  70 N9        30.09R WCI  21
CARMI*         CLOUDY    32  21  63 N6        30.07R WCI  26
$$

ABBREVIATIONS USED IN REMARKS
   TC - TEMPERATURE IN CELSIUS
  WCI - WIND CHILL INDEX
   HX - HEAT INDEX
  VSB - VISIBILITY
$$





USA.gov is the U.S. government's official web portal to all federal, state and local government web resources and services.